DW6610 Weather Reports


time (UTC)temp
C
wind
direction
speed
KPH
gust
KPH
rain 1hr
cm
rain 24hr
cm
rain mn
cm
humidity
%
barometer
mb
20260505101051 17 32 0.0 6.4 0.00 0.00 0.00 75 1009.8
20260505100621 17 0 1.6 9.7 0.00 0.00 0.00 74 1009.8
20260505100128 17 63 1.6 9.7 0.00 0.00 0.00 74 1009.7
20260505095551 17 75 3.2 11.3 0.00 0.00 0.00 74 1009.5
20260505095050 17 107 3.2 12.9 0.00 0.00 0.00 74 1009.4
20260505094551 17 307 1.6 12.9 0.00 0.00 0.00 74 1009.4
20260505094052 17 51 1.6 9.7 0.00 0.00 0.00 73 1009.3
20260505093552 17 22 1.6 11.3 0.00 0.00 0.00 73 1009.5
20260505093053 17 8 3.2 11.3 0.00 0.00 0.00 73 1009.4
20260505092554 17 61 4.8 11.3 0.00 0.00 0.00 73 1009.4
20260505092053 17 67 3.2 11.3 0.00 0.00 0.00 73 1009.2
20260505091616 17 51 4.8 11.3 0.00 0.00 0.00 72 1009.1
20260505091052 17 38 3.2 16.1 0.00 0.00 0.00 72 1009.0
20260505090551 17 84 6.4 16.1 0.00 0.00 0.00 72 1009.0
20260505090100 17 89 3.2 16.1 0.00 0.00 0.00 72 1009.1
20260505085551 17 33 4.8 16.1 0.00 0.00 0.00 72 1009.2
20260505085049 17 41 4.8 16.1 0.00 0.00 0.00 72 1009.1
20260505084550 17 89 3.2 12.9 0.00 0.00 0.00 72 1009.1
20260505084050 17 34 4.8 12.9 0.00 0.00 0.00 72 1009.2
20260505083551 17 24 3.2 11.3 0.00 0.00 0.00 72 1009.3
20260505083054 17 83 4.8 11.3 0.00 0.00 0.00 72 1009.3
20260505082551 17 39 3.2 11.3 0.00 0.00 0.00 72 1009.3
20260505082050 17 288 4.8 9.7 0.00 0.00 0.00 72 1009.4
20260505081557 17 68 3.2 9.7 0.00 0.00 0.00 72 1009.5
20260505081052 17 17 3.2 9.7 0.00 0.00 0.00 72 1009.4
20260505080550 16 85 1.6 8.0 0.00 0.00 0.00 73 1009.5
20260505080054 16 44 3.2 8.0 0.00 0.00 0.00 73 1009.6
20260505075548 16 62 3.2 8.0 0.00 0.00 0.00 73 1009.5
20260505075053 16 34 3.2 8.0 0.00 0.00 0.00 73 1009.6
20260505074553 16 306 3.2 8.0 0.00 0.00 0.00 72 1009.6
20260505074054 16 94 3.2 8.0 0.00 0.00 0.00 72 1009.5
20260505073547 16 4 1.6 11.3 0.00 0.00 0.00 72 1009.7
20260505073100 16 56 1.6 11.3 0.00 0.00 0.00 72 1009.8
20260505072551 16 63 1.6 8.0 0.00 0.00 0.00 72 1010.0
20260505072054 17 26 3.2 8.0 0.00 0.00 0.00 72 1010.0
20260505071552 17 55 1.6 6.4 0.00 0.00 0.00 72 1010.3
20260505071052 17 78 1.6 6.4 0.00 0.00 0.00 72 1010.5
20260505070549 17 34 1.6 8.0 0.00 0.00 0.00 71 1010.6
20260505070057 17 21 1.6 8.0 0.00 0.00 0.00 71 1010.7
20260505065552 17 49 1.6 6.4 0.00 0.00 0.00 71 1010.7
20260505065052 17 15 1.6 6.4 0.00 0.00 0.00 71 1011.0
20260505064602 17 77 0.0 4.8 0.00 0.00 0.00 70 1011.0
20260505064048 17 48 1.6 4.8 0.00 0.00 0.00 70 1011.1
20260505063549 17 63 1.6 6.4 0.00 0.00 0.00 69 1011.1
20260505063101 17 35 1.6 9.7 0.00 0.00 0.00 69 1011.1
20260505062551 17 54 3.2 9.7 0.00 0.00 0.00 68 1011.2
20260505062051 17 12 1.6 6.4 0.00 0.00 0.00 68 1011.2
20260505061552 18 62 1.6 4.8 0.00 0.00 0.00 67 1011.1
20260505061051 18 337 1.6 6.4 0.00 0.00 0.00 67 1011.3
20260505060554 18 84 1.6 6.4 0.00 0.00 0.00 67 1011.3
20260505060059 18 65 3.2 6.4 0.00 0.00 0.00 66 1011.3
20260505055549 18 42 3.2 6.4 0.00 0.00 0.00 66 1011.2
20260505055049 18 52 1.6 6.4 0.00 0.00 0.00 66 1011.2
20260505054620 18 56 1.6 8.0 0.00 0.00 0.00 65 1011.1
20260505054054 18 25 1.6 8.0 0.00 0.00 0.00 65 1011.2
20260505053548 18 77 3.2 8.0 0.00 0.00 0.00 65 1011.1
20260505053100 18 18 3.2 8.0 0.00 0.00 0.00 65 1011.0
20260505052552 18 5 1.6 8.0 0.00 0.00 0.00 65 1011.2
20260505052051 18 9 3.2 8.0 0.00 0.00 0.00 65 1011.2
20260505051555 18 74 1.6 8.0 0.00 0.00 0.00 65 1011.2
20260505051053 18 72 3.2 11.3 0.00 0.00 0.00 65 1011.2
20260505050552 18 53 1.6 11.3 0.00 0.00 0.00 65 1011.2
20260505041605 19 84 1.6 9.7 0.00 0.00 0.00 63 1011.4
20260505041051 19 48 0.0 9.7 0.00 0.00 0.00 62 1011.3
20260505040551 19 304 3.2 9.7 0.00 0.00 0.00 62 1011.3
20260505040052 19 57 3.2 9.7 0.00 0.00 0.00 62 1011.3
20260505035551 20 58 3.2 9.7 0.00 0.00 0.00 62 1011.2
20260505035053 20 122 4.8 11.3 0.00 0.00 0.00 62 1011.1
20260505034553 20 75 3.2 11.3 0.00 0.00 0.00 61 1011.2
20260505034051 20 59 4.8 11.3 0.00 0.00 0.00 61 1011.2
20260505033552 20 20 3.2 8.0 0.00 0.00 0.00 61 1011.1
20260505033053 20 310 1.6 11.3 0.00 0.00 0.00 61 1011.1
20260505032552 20 44 1.6 11.3 0.00 0.00 0.00 61 1011.1
20260505032052 20 60 3.2 11.3 0.00 0.00 0.00 60 1011.0
20260505031553 20 75 3.2 8.0 0.00 0.00 0.00 60 1011.0
20260505031052 20 67 3.2 9.7 0.00 0.00 0.00 60 1011.0
20260505030551 20 271 3.2 9.7 0.00 0.00 0.00 59 1011.0
20260505030103 20 96 3.2 8.0 0.00 0.00 0.00 59 1011.0
20260505025553 20 57 3.2 11.3 0.00 0.00 0.00 59 1011.1
20260505025052 20 269 3.2 11.3 0.00 0.00 0.00 58 1010.9
20260505024601 20 37 3.2 11.3 0.00 0.00 0.00 58 1010.9
20260505024051 20 345 4.8 9.7 0.00 0.00 0.00 58 1010.8
20260505023552 20 49 3.2 9.7 0.00 0.00 0.00 58 1010.9
20260505023104 20 68 4.8 9.7 0.00 0.00 0.00 58 1010.8
20260505022551 20 347 3.2 9.7 0.00 0.00 0.00 57 1010.9
20260505022051 20 24 3.2 9.7 0.00 0.00 0.00 57 1010.7
20260505021556 20 326 3.2 9.7 0.00 0.00 0.00 57 1010.6
20260505021050 21 7 3.2 6.4 0.00 0.00 0.00 56 1010.5
20260505020550 21 52 1.6 6.4 0.00 0.00 0.00 56 1010.6
20260505015552 21 51 1.6 8.0 0.00 0.00 0.00 55 1010.4
20260505015053 21 44 3.2 9.7 0.00 0.00 0.00 55 1010.3
20260505014552 21 11 1.6 11.3 0.00 0.00 0.00 55 1010.3
20260505014055 21 21 3.2 11.3 0.00 0.00 0.00 54 1010.3
20260505013552 21 99 4.8 11.3 0.00 0.00 0.00 54 1010.3
20260505013053 21 88 1.6 8.0 0.00 0.00 0.00 54 1010.4
20260505012551 21 89 1.6 8.0 0.00 0.00 0.00 53 1010.3
20260505012051 22 36 3.2 8.0 0.00 0.00 0.00 53 1010.3
20260505011554 22 48 1.6 9.7 0.00 0.00 0.00 52 1010.4
20260505011050 22 46 3.2 9.7 0.00 0.00 0.00 52 1010.3
20260505010553 22 21 3.2 14.5 0.00 0.00 0.00 51 1010.3
20260505010106 22 67 3.2 16.1 0.00 0.00 0.00 51 1010.2
20260505005551 22 150 3.2 16.1 0.00 0.00 0.00 50 1010.3
20260505005051 22 75 6.4 16.1 0.00 0.00 0.00 50 1010.2
20260505004553 23 38 4.8 14.5 0.00 0.00 0.00 50 1010.1
20260505004050 23 330 6.4 14.5 0.00 0.00 0.00 49 1010.1
20260505003550 23 41 6.4 17.7 0.00 0.00 0.00 49 1010.2
20260505003053 23 291 4.8 17.7 0.00 0.00 0.00 49 1010.2
20260505002551 23 84 3.2 17.7 0.00 0.00 0.00 49 1010.1
20260505002051 23 144 6.4 17.7 0.00 0.00 0.00 48 1010.1
20260505001556 23 49 6.4 17.7 0.00 0.00 0.00 48 1010.1
20260505001054 24 359 4.8 17.7 0.00 0.00 0.00 47 1010.2
20260505000551 24 70 4.8 19.3 0.00 0.00 0.00 46 1010.2
20260504235554 25 146 8.0 19.3 0.00 0.00 0.00 45 1010.2
20260504235051 25 55 4.8 17.7 0.00 0.00 0.00 44 1010.3
20260504234554 25 99 6.4 17.7 0.00 0.00 0.00 44 1010.2
20260504234051 26 48 4.8 19.3 0.00 0.00 0.00 43 1010.3
20260504233553 26 307 6.4 24.1 0.00 0.00 0.00 42 1010.2
20260504233055 26 123 8.0 24.1 0.00 0.00 0.00 42 1010.4
20260504232553 26 117 9.7 20.9 0.00 0.00 0.00 42 1010.3
20260504232051 26 328 6.4 19.3 0.00 0.00 0.00 42 1010.3
20260504231557 26 60 4.8 24.1 0.00 0.00 0.00 42 1010.3
20260504231051 26 21 8.0 24.1 0.00 0.00 0.00 42 1010.2
20260504230555 26 81 6.4 19.3 0.00 0.00 0.00 42 1010.3
20260504230111 26 280 8.0 19.3 0.00 0.00 0.00 40 1010.4
20260504225553 27 39 6.4 17.7 0.00 0.00 0.00 40 1010.3
20260504225054 27 91 4.8 17.7 0.00 0.00 0.00 42 1010.3
20260504224612 27 328 6.4 20.9 0.00 0.00 0.00 40 1010.5
20260504224052 27 285 4.8 20.9 0.00 0.00 0.00 40 1010.5
20260504223551 27 46 8.0 19.3 0.00 0.00 0.00 39 1010.4
20260504223103 27 28 9.7 22.5 0.00 0.00 0.00 39 1010.4
20260504222550 27 282 8.0 25.7 0.00 0.00 0.00 39 1010.5
20260504222050 27 316 9.7 25.7 0.00 0.00 0.00 40 1010.5
20260504221555 27 37 8.0 27.4 0.00 0.00 0.00 40 1010.5
20260504221050 27 323 11.3 27.4 0.00 0.00 0.00 40 1010.6
20260504220552 27 69 9.7 27.4 0.00 0.00 0.00 39 1010.4
20260504220059 27 26 8.0 24.1 0.00 0.00 0.00 40 1010.5
20260504215553 27 10 9.7 24.1 0.00 0.00 0.00 39 1010.6
20260504215054 27 68 8.0 24.1 0.00 0.00 0.00 40 1010.4
20260504214557 27 9 6.4 20.9 0.00 0.00 0.00 40 1010.6
20260504214053 27 77 8.0 20.9 0.00 0.00 0.00 40 1010.5
20260504213551 27 41 9.7 24.1 0.00 0.00 0.00 39 1010.4
20260504213101 27 338 9.7 24.1 0.00 0.00 0.00 40 1010.5
20260504212550 27 88 6.4 29.0 0.00 0.00 0.00 39 1010.6
20260504212052 27 80 6.4 29.0 0.00 0.00 0.00 39 1010.5
20260504211600 27 240 9.7 29.0 0.00 0.00 0.00 38 1010.6
20260504211053 27 346 9.7 20.9 0.00 0.00 0.00 39 1010.7
20260504210552 27 81 8.0 24.1 0.00 0.00 0.00 39 1010.8
20260504205551 27 120 8.0 19.3 0.00 0.00 0.00 40 1010.8
20260504205052 27 311 6.4 19.3 0.00 0.00 0.00 40 1010.7
20260504204556 27 357 8.0 24.1 0.00 0.00 0.00 40 1010.9
20260504204048 27 41 8.0 33.8 0.00 0.00 0.00 40 1010.9
20260504203552 27 345 11.3 33.8 0.00 0.00 0.00 39 1011.1
20260504203059 27 20 9.7 20.9 0.00 0.00 0.00 38 1011.2
20260504202552 27 43 8.0 22.5 0.00 0.00 0.00 42 1011.1
20260504202055 27 347 6.4 22.5 0.00 0.00 0.00 42 1011.2
20260504201552 27 301 8.0 20.9 0.00 0.00 0.00 40 1011.3
20260504201052 27 27 8.0 24.1 0.00 0.00 0.00 40 1011.2
20260504200552 27 352 11.3 24.1 0.00 0.00 0.00 40 1011.6
20260504195551 27 50 6.4 20.9 0.00 0.00 0.00 40 1011.6
20260504195052 27 68 8.0 22.5 0.00 0.00 0.00 41 1011.6
20260504194552 27 275 9.7 22.5 0.00 0.00 0.00 41 1011.6
20260504194053 27 89 8.0 19.3 0.00 0.00 0.00 41 1011.8
20260504193552 27 340 6.4 20.9 0.00 0.00 0.00 42 1012.0
20260504193052 27 298 9.7 20.9 0.00 0.00 0.00 41 1012.1
20260504192552 27 71 8.0 19.3 0.00 0.00 0.00 43 1012.2
20260504192052 27 346 6.4 24.1 0.00 0.00 0.00 44 1012.3
20260504191606 27 324 9.7 24.1 0.00 0.00 0.00 41 1012.3
20260504191052 27 88 9.7 32.2 0.00 0.00 0.00 42 1012.3
20260504190554 27 78 9.7 32.2 0.00 0.00 0.00 41 1012.4
20260504190051 27 85 9.7 32.2 0.00 0.00 0.00 40 1012.6
20260504185552 27 55 8.0 27.4 0.00 0.00 0.00 41 1012.5
20260504185052 27 76 9.7 19.3 0.00 0.00 0.00 42 1012.6
20260504184555 27 338 8.0 17.7 0.00 0.00 0.00 41 1012.6
20260504184052 27 98 4.8 20.9 0.00 0.00 0.00 44 1012.6
20260504183552 27 83 6.4 22.5 0.00 0.00 0.00 43 1012.6
20260504183054 27 48 9.7 22.5 0.00 0.00 0.00 43 1012.8
20260504182552 27 286 11.3 22.5 0.00 0.00 0.00 41 1012.8
20260504182051 27 323 8.0 22.5 0.00 0.00 0.00 45 1012.8
20260504181602 27 109 11.3 25.7 0.00 0.00 0.00 42 1012.8
20260504181052 27 64 8.0 25.7 0.00 0.00 0.00 42 1012.9
20260504180553 27 77 9.7 20.9 0.00 0.00 0.00 44 1013.0
20260504180058 27 76 6.4 22.5 0.00 0.00 0.00 45 1012.9
20260504175551 27 92 4.8 22.5 0.00 0.00 0.00 47 1012.9
20260504175051 27 85 8.0 20.9 0.00 0.00 0.00 45 1013.1
20260504174556 27 332 4.8 20.9 0.00 0.00 0.00 45 1013.1
20260504174051 27 313 6.4 20.9 0.00 0.00 0.00 45 1013.2
20260504173552 26 26 9.7 19.3 0.00 0.00 0.00 44 1013.3
20260504173055 26 27 8.0 17.7 0.00 0.00 0.00 44 1013.4
20260504172552 26 41 9.7 27.4 0.00 0.00 0.00 46 1013.5
20260504172049 26 57 9.7 27.4 0.00 0.00 0.00 45 1013.6
20260504171557 27 308 6.4 12.9 0.00 0.00 0.00 44 1013.6
20260504171052 27 331 4.8 12.9 0.00 0.00 0.00 48 1013.6
20260504170552 26 34 3.2 22.5 0.00 0.00 0.00 49 1013.8
20260504160104 25 32 8.0 19.3 0.00 0.00 0.00 49 1014.8
20260504151048 23 99 4.8 14.5 0.00 0.00 0.00 56 1014.8
20260504150552 23 302 4.8 22.5 0.00 0.00 0.00 59 1014.9
20260504141050 22 97 4.8 11.3 0.00 0.00 0.00 62 1015.3
20260504140548 21 115 3.2 11.3 0.00 0.00 0.00 64 1015.1
20260504130550 18 94 1.6 6.4 0.00 0.00 0.00 74 1015.0
20260504120135 14 13 1.6 6.4 0.00 0.00 0.00 81 1014.5
20260504110551 14 82 0.0 3.2 0.00 0.00 0.00 79 1014.0